Other Public Products
Issued by NWS Grand Forks, ND

Home | Current Version | Previous Version | Graphics & Text | Print | Product List | Glossary On
Versions: 1 2 3 4 5 6 7 8 9 10 11 12 13 14 15 16 17 18 19 20 21 22 23 24 25 26 27 28 29 30 31 32 33 34 35 36 37 38 39 40 41 42 43 44 45 46 47 48 49 50
000
FPUS83 KFGF 121431
OPUFGF
PRAIRIE TO PINES WEATHER ROUNDUP
NATIONAL WEATHER SERVICE EASTERN NORTH DAKOTA/GRAND FORKS ND
800 AM CST TUE DEC 12 2017

 **SATELLITE DATA USED TO AUGMENT SKY COVER AT AUTOMATED STATIONS**
 *****  WEATHER ACROSS EASTERN NORTH DAKOTA  *****

CITY           SKY/WX    TMP DP  RH WIND       PRES   REMARKS
GRAND FORKS    CLOUDY    20  17  88 S12       30.04F WCI   8
GRND FORKS AFB CLOUDY    21  18  87 S8        30.02F WCI  12
GRND FORKS NWS   N/A     19 N/A N/A S7          N/A  WCI  10
BUXTON           N/A     19  18  95 S9          N/A  WCI   8
DEVILS LAKE    FAIR      27  24  89 W8        29.99F WCI  19
FARGO          CLOUDY    21  17  84 S10       30.08F WCI  10
WAHPETON ARPT    N/A     19  16  86 SE5       30.12F WCI  13
$$

 *****  WEATHER ACROSS CENTRAL AND WESTERN NORTH DAKOTA  *****

CITY           SKY/WX    TMP DP  RH WIND       PRES   REMARKS
JAMESTOWN      FAIR      24  22  91 SW9       30.03F WCI  14
BISMARCK       FAIR      25  23  92 SW7       30.07F WCI  17
MINOT          FAIR      32  24  72 SW13G24   29.96F WCI  22
MINOT AFB      FAIR      31  23  73 W8        29.95F WCI  23
GARRISON         N/A     26  24  92 W9        30.00F WCI  17
WILLISTON      CLEAR     27  21  80 SW3       30.04F
DICKINSON      FAIR      30  22  72 W16       30.02F WCI  19
HETTINGER      FAIR      21  17  84 W6        30.09F WCI  13
$$

 *****  OTHER OBSERVATIONS NORTHEAST NORTH DAKOTA  *****

CITY           SKY/WX    TMP DP  RH WIND       PRES   REMARKS
WALHALLA       FAIR      23  23 100 CALM      29.94F
LANGDON        PTSUNNY   27  27 100 SW10      29.92F WCI  17
CAVALIER       FAIR      21  21 100 S8        29.95F WCI  12
GRAFTON        FAIR      21  19  93 S10G17    30.00F WCI  10
CANDO          PTSUNNY   27  27 100 W7        29.96F WCI  19
FORT TOTTEN      N/A     27  24  89 W3        29.95S
ROLLA          PTSUNNY   25  25 100 SW10      29.92F WCI  15
RUGBY          CLOUDY    27  25  93 SW5       29.96F WCI  21
 ***** THE ABOVE OBSERVATIONS ARE NON NWS ARE NOT QUALITY
        CONTROLLED AND MAY MIS-REPORT RAIN FOR SNOW...
$$

 *****  OTHER OBSERVATIONS SOUTHEAST NORTH DAKOTA *****

CITY           SKY/WX    TMP DP  RH WIND       PRES   REMARKS
COOPERSTOWN    FAIR      27  25  93 W12       30.01F WCI  16
VALLEY CITY    FAIR      25  25 100 SW13      30.05S WCI  13
OAKES            N/A     21  21 100 SW14      30.08F WCI   8
GWINNER          N/A     23  21  93 SW15      30.08F WCI  10
SHEYENNE NWR     N/A     23  22  96 SW7       29.95S WCI  15
BUFFALO          N/A     26  23  89 SE10        N/A  WCI  16
WYNDMERE       NOT AVBL
 ***** THE ABOVE OBSERVATIONS ARE NON NWS ARE NOT QUALITY
       CONTROLLED AND MAY MIS-REPORT RAIN FOR SNOW...
$$

  *****  WEATHER ACROSS NORTHERN MINNESOTA  *****

CITY           SKY/WX    TMP DP  RH WIND       PRES   REMARKS
FLAG ISLAND    FLURRIES   7   3  85 S9        30.01F WCI  -7
WARROAD        CLOUDY     7   1  78 SE3       30.03F FOG
ROSEAU         LGT SNOW  10   7  85 SE7       30.01F VSB 3/4 WCI   0
HALLOCK        CLOUDY    18  16  93 S14       29.99F WCI   4
THF RVR FALLS  LGT SNOW  14  12  92 S12       30.04F FOG     WCI   0
HALSTAD        NOT AVBL
FOSSTON        CLOUDY    12  10  92 S10       30.05F FOG     WCI  -1
BAUDETTE       CLOUDY     2  -1  88 SE5       30.05F WCI  -8
WASKISH        CLOUDY     3   0  85 SE5       30.07F WCI  -6
CROOKSTON      CLOUDY    16  14  93 S12       30.05F WCI   3
$$
  *****  WEATHER ACROSS CENTRAL AND WEST MINNESOTA  *****

CITY           SKY/WX    TMP DP  RH WIND       PRES   REMARKS
BEMIDJI        CLOUDY     7   4  88 SE3       30.06F
PARK RAPIDS    CLOUDY     8   4  83 S6        30.08F WCI  -2
WADENA         CLOUDY    10   9  92 SW5       30.09F WCI   2
DETROIT LAKES  CLOUDY    18  14  86 S7        30.08F WCI   8
MOORHEAD       CLOUDY    18  14  86 S13       30.08F WCI   4
FERGUS FALLS   CLOUDY    16  10  79 S10       30.15F WCI   3
ELBOW LAKE     CLOUDY    15  11  85 S8        30.13F WCI   4
MORRIS MN      CLOUDY    16  12  86 S7        30.13F WCI   6
STAPLES        CLOUDY     9   3  78 CALM      30.11F
WHEATON        CLOUDY    19  16  86 S8        30.14F WCI   9
$$
  *****  WEATHER ELSEWHERE ACROSS MINNESOTA  *****

CITY           SKY/WX    TMP DP  RH WIND       PRES   REMARKS
DULUTH         FAIR       0  -3  87 NW8       30.10S WCI -14
INTRNTL FALLS  CLOUDY     0  -4  83 CALM      30.07F
ELY            FAIR      -6  -9  84 CALM      30.05F
CLOQUET        CLOUDY     0  -4  85 W6        30.11F WCI -12
BRAINERD       CLOUDY     3  -1  83 S5        30.14F WCI  -6
HIBBING        MOCLDY    -2  -5  87 CALM      30.10F
ALEXANDRIA     CLOUDY    12   8  84 SW8       30.13F WCI   0
SAINT CLOUD    CLOUDY     9   4  80 NW5       30.18F WCI   1
MINNEAPOLIS    FAIR       7   3  84 W7        30.23S WCI  -5
$$

  *****  WEATHER ACROSS SOUTH DAKOTA  *****

CITY           SKY/WX    TMP DP  RH WIND       PRES   REMARKS
SIOUX FALLS    CLOUDY    19  16  88 CALM      30.24F
BROOKINGS      CLOUDY    21  17  84 W6        30.19F WCI  13
WATERTOWN      CLOUDY    22  20  92 SW7       30.14F WCI  13
HURON          CLOUDY    24  22  91 S7        30.19F WCI  16
SISSETON         N/A     27  22  81 W13       30.11F WCI  16
ABERDEEN       FAIR      19  18  95 S8        30.15F WCI   9
MITCHELL       CLOUDY    24  21  88 S5        30.24F WCI  18
PIERRE         FAIR      24  23  96 SW7       30.18F WCI  16
MOBRIDGE       FAIR      26  22  84 S5        30.11F WCI  20
RAPID CITY     FAIR      20  10  65 CALM      30.17F
$$

  *****  SOME WEATHER IN NEARBY STATES *****

CITY           SKY/WX    TMP DP  RH WIND       PRES   REMARKS
GLASGOW MT     FAIR      25  19  78 W5        30.07F WCI  19
GREAT FALLS MT FAIR      43   4  19 SW23      30.18F
CHEYENNE WY    FAIR      38  15  39 W8        30.32F
SCOTTSBLUFF NE FAIR      21  14  74 NW8       30.29F WCI  11
OMAHA NE       FAIR      15   9  76 N3        30.33F
DES MOINES IA  FAIR      15   8  73 NW10      30.28S WCI   2
DAVENPORT IA   FAIR      17  11  77 NW14      30.20S WCI   3
CHICAGO IL     FAIR      17   7  64 NW20      30.07R WCI   1
EAU CLAIRE WI  FAIR       4   1  88 W6        30.16F WCI  -7
LA CROSSE WI   FAIR      12   4  70 NW12      30.19F WCI  -2
$$

  *****  SOME NATIONAL WEATHER *****

CITY           SKY/WX    TMP DP  RH WIND       PRES   REMARKS
LA GUARDIA NY  CLOUDY    50  39  66 S12       29.61F
RALEIGH NC     PTSUNNY   41  35  79 SW13      29.70F
ATLANTA GA     FAIR      43  36  76 NW12      29.89R
NEW ORLEANS LA FAIR      52  44  74 NW8       30.17R
OKLAHOMA CITY  FAIR      34  27  75 N12       30.41R
ALBUQUERQUE NM FAIR      28   5  37 N5        30.50R WCI  23
SALT LAKE CITY SNOW      24  23  96 N3        30.60R VSB 1/4
LOS ANGELES CA FAIR      63   3   9 NE7       30.18S
BOISE ID       CLOUDY    24  20  84 CALM      30.66F
SEATTLE WA     CLOUDY    33  25  72 N6        30.43S
$$

*** WEATHER ACROSS MANITOBA...SASKATCHEWAN AND ONTARIO ***
                ***ONTARIO***

CITY           SKY/WX    TMP DP  RH WIND       PRES   REMARKS
GERALDTON      FLURRIES  -9 -13  84 N3        30.00F
THUNDER BAY    PTCLDY    -2  -8  78 W9        30.10S WCI -18
SIOUX LOOKOUT  MOCLDY   -18 -24  76 CALM      30.03F
TORONTO        FLURRIES  27  23  86 W16G24    29.52S WCI  14
BIG TROUT LK   PTCLDY   -13 -17  84 W6        29.99S WCI -27
PICKLE LAKE    PTCLDY   -17 -22  76 W6        29.98F WCI -31
DRYDEN         MOCLDY    -9 -13  84 SW7       30.03F WCI -24
KENORA         MOCLDY     1  -2  85 SE5       30.02F WCI  -8
$$
                *** MANITOBA***

CITY           SKY/WX    TMP DP  RH WIND       PRES   REMARKS
BRANDON        CLOUDY    27  23  86 W9        29.92F WCI  17
DAUPHIN        CLOUDY    30  27  86 SW7       29.88F WCI  23
ISLAND LAKE    PTCLDY   -11 -17  77 SE2       29.99F
PILOT MOUND      N/A     23  21  93 SW6         N/A  WCI  16
THE PAS        CLOUDY    18  14  86 SE10      29.78F WCI   6
THOMPSON       FLURRIES  -2  -8  78 S3        29.88F
WINNIPEG       FLURRIES  14  12  92 SE13      29.96F WCI   0
LYNN LAKE      LGT SNOW   7   5  92 SE10      29.67F WCI  -8
CHURCHILL      PTCLDY   -22 -27  76 W7        29.97S WCI -39
GILLAM         MOCLDY   -20 -26  76 S3        29.96F
$$
                ***SASKATCHEWAN***

CITY           SKY/WX    TMP DP  RH WIND       PRES   REMARKS
ESTEVAN        PTCLDY    27  21  80 SW9       29.95F WCI  17
KINDERSLEY     CLEAR     25  19  80 SW6       29.90F WCI  18
LLOYDMINSTER   PTCLDY    36  25  64 W15       29.81F
PRINCE ALBERT  PTCLDY    23  19  86 N3        29.77F
REGINA         PTCLDY    25  21  86 W8        29.92F WCI  16
YORKTON        CLOUDY    28  25  86 S8        29.81F WC



USA.gov is the U.S. government's official web portal to all federal, state and local government web resources and services.